Location: Newark
(40.9833°N, 0.0333°W)
Time: 00:19:08
(UTC+00:00)

Altair - Pass Details

Date: 27 October 2020
Orbit: 1502 x 1682 km, 47.2° (Epoch: 03 December)

Event Time Altitude Azimuth Distance (km) Brightness Sun altitude
Rises 08:21:28 0° 278° (W) 4,699 9.5 18.6°
Reaches altitude 10° 08:24:34 10° 283° (WNW) 3,737 9.1 19.1°
Maximum altitude 08:33:57 60° 2° (N) 1,785 8.0 20.5°
Drops below altitude 10° 08:43:43 10° 82° (E) 3,878 10.3 21.8°
Sets 08:46:59 0° 86° (E) 4,885 10.8 22.3°
